Flag for United Kingdom Weather past 2 weeks in Glasgow, Scotland, United Kingdom

Now
43 °F

Clear.


Feels Like: 39 °F
Forecast: 40 / 60 °F
Wind: 6 mph from West

Location: Glasgow Airport

Current Time: Aug 23, 2014 at 7:42:52 AM

Latest Report: Aug 23, 2014 at 6:50 AM


Visibility: 10 mi

Pressure: 29.92 "Hg

Humidity: 93%

Dew point: 41 °F

Location of GlasgowLocation

Historic Weather in Glasgow — Graph

°F

Glasgow temperature yesterday

Maximum temperature yesterday: 61 °F (at 1:50 PM)
Minimum temperature yesterday: 43 °F (at 11:50 PM)
Average temperature yesterday: 53 °F

Past Weeks' High & Low Weather Summary

 TemperatureHumidityPressure
High66 °F (Aug 8, 11:50 AM)100% (Aug 8, 10:20 PM)30.09 "Hg (Aug 8, 10:20 PM)
Low39 °F (Aug 19, 5:20 AM)49% (Aug 19, 2:50 PM)29.30 "Hg (Aug 10, 5:20 PM)
Average55 °F82%29.71 "Hg
* Reported Aug 8 6:20 AM — Aug 23 6:20 AM, Glasgow, Weather by CustomWeather, © 2014

Note: Actual official high and low records may vary slightly from our data, if they occured in-between our weather recording intervals... More about our weather records

Advertising

Glasgow weather history for previous 24 hours

 ConditionsComfort  
Time TempWeatherWind HumidityBarometerVisibility
6:20 AM
Aug 23
45 °FClear.5 mph93%29.92 "Hg10 mi
5:50 AM45 °FClear.3 mph87%29.92 "Hg10 mi
5:20 AM43 °FClear.5 mph93%29.89 "Hg10 mi
4:50 AM41 °FClear.6 mph93%29.89 "Hg10 mi
4:20 AM43 °FClear.6 mph93%29.89 "Hg10 mi
3:50 AM45 °FClear.6 mph93%29.89 "Hg10 mi
3:20 AM46 °FClear.5 mph93%29.89 "Hg10 mi
2:50 AM46 °FClear.6 mph93%29.89 "Hg10 mi
2:20 AM46 °FClear.6 mph93%29.89 "Hg10 mi
1:50 AM46 °FClear.5 mph93%29.89 "Hg10 mi
1:20 AM46 °FClear.2 mph93%29.89 "Hg10 mi
12:50 AM45 °FClear.6 mph93%29.89 "Hg10 mi
12:20 AM45 °FClear.5 mph93%29.89 "Hg10 mi
11:50 PM
Aug 22
43 °FClear.6 mph93%29.89 "Hg10 mi
11:20 PM45 °FPassing clouds.6 mph87%29.89 "HgN/A
10:50 PM45 °FPassing clouds.7 mph87%29.89 "HgN/A
10:20 PM46 °FPassing clouds.7 mph87%29.89 "HgN/A
9:50 PM46 °FClear.7 mph87%29.89 "Hg10 mi
9:20 PM50 °FSunny.6 mph82%29.86 "Hg10 mi
8:50 PM52 °FSunny.8 mph77%29.86 "Hg10 mi
8:20 PM54 °FSunny.8 mph72%29.86 "Hg10 mi
7:50 PM54 °FSunny.8 mph72%29.86 "Hg10 mi
7:20 PM54 °FSunny.9 mph72%29.86 "Hg10 mi
6:50 PM57 °FPassing clouds.13 mph59%29.86 "HgN/A
6:20 PM59 °FPassing clouds.12 mph59%29.86 "HgN/A
5:50 PM59 °FPassing clouds.10 mph59%29.86 "HgN/A
5:20 PM59 °FPassing clouds.12 mph59%29.86 "HgN/A
4:50 PM59 °FPassing clouds.12 mph59%29.86 "HgN/A
4:20 PM59 °FScattered clouds.12 mph55%29.86 "HgN/A
3:50 PM61 °FScattered clouds.13 mph59%29.86 "HgN/A
3:20 PM61 °FPassing clouds.12 mph55%29.86 "HgN/A
2:50 PM61 °FPassing clouds.12 mph59%29.86 "HgN/A
2:20 PM61 °FPassing clouds.12 mph55%29.86 "HgN/A
1:50 PM61 °FPassing clouds.13 mph59%29.86 "HgN/A
1:20 PM59 °FPassing clouds.12 mph63%29.86 "HgN/A
12:50 PM59 °FPassing clouds.13 mph63%29.83 "HgN/A
12:20 PM59 °FPassing clouds.12 mph63%29.83 "HgN/A
11:50 AM59 °FPassing clouds.9 mph63%29.83 "HgN/A
11:20 AM59 °FPassing clouds.8 mph63%29.83 "HgN/A
10:50 AM57 °FPassing clouds.8 mph67%29.83 "HgN/A
10:20 AM55 °FPassing clouds.7 mph72%29.83 "HgN/A
9:50 AM55 °FPassing clouds.8 mph72%29.83 "HgN/A
9:20 AM54 °FSunny.9 mph77%29.83 "Hg10 mi
8:50 AM54 °FPassing clouds.8 mph77%29.83 "HgN/A
8:20 AM52 °FSunny.7 mph82%29.83 "Hg10 mi
7:50 AM50 °FSunny.2 mph88%29.83 "Hg10 mi
7:20 AM46 °FSunny.3 mph93%29.80 "Hg10 mi
Weather by CustomWeather, © 2014

See weather overviewHow to use our weather pages